| time (UTC) | temp C | wind direction | speed KPH | gust KPH | rain 1hr cm | rain 24hr cm | rain mn cm | humidity % | barometer mb |
| 20260505041549 | 16 | 0 | 0.0 | 0.0 | 0.00 | 0.00 | 0.00 | 65 | 1016.9 |
| 20260505041022 | 17 | 0 | 0.0 | 0.0 | 0.00 | 0.00 | 0.00 | 64 | 1017.0 |
| 20260505040523 | 17 | 0 | 0.0 | 0.0 | 0.00 | 0.00 | 0.00 | 64 | 1017.1 |
| 20260505040047 | 17 | 0 | 0.0 | 0.0 | 0.00 | 0.00 | 0.00 | 64 | 1017.0 |
| 20260505035520 | 17 | 0 | 0.0 | 0.0 | 0.00 | 0.00 | 0.00 | 64 | 1017.1 |
| 20260505035020 | 17 | 0 | 0.0 | 0.0 | 0.00 | 0.00 | 0.00 | 64 | 1017.1 |
| 20260505034539 | 17 | 0 | 0.0 | 0.0 | 0.00 | 0.00 | 0.00 | 63 | 1017.1 |
| 20260505034020 | 17 | 0 | 0.0 | 0.0 | 0.00 | 0.00 | 0.00 | 64 | 1017.1 |
| 20260505033520 | 17 | 0 | 0.0 | 0.0 | 0.00 | 0.00 | 0.00 | 63 | 1017.1 |
| 20260505033037 | 17 | 0 | 0.0 | 0.0 | 0.00 | 0.00 | 0.00 | 64 | 1017.2 |
| 20260505032521 | 17 | 0 | 0.0 | 0.0 | 0.00 | 0.00 | 0.00 | 63 | 1017.1 |
| 20260505032020 | 17 | 0 | 0.0 | 0.0 | 0.00 | 0.00 | 0.00 | 63 | 1017.2 |
| 20260505031542 | 17 | 0 | 0.0 | 0.0 | 0.00 | 0.00 | 0.00 | 63 | 1017.1 |
| 20260505031021 | 17 | 0 | 0.0 | 1.6 | 0.00 | 0.00 | 0.00 | 62 | 1017.1 |
| 20260505030519 | 18 | 0 | 0.0 | 1.6 | 0.00 | 0.00 | 0.00 | 63 | 1017.2 |
| 20260505030037 | 18 | 0 | 0.0 | 0.0 | 0.00 | 0.00 | 0.00 | 62 | 1017.2 |
| 20260505025521 | 18 | 0 | 0.0 | 0.0 | 0.00 | 0.00 | 0.00 | 61 | 1017.3 |
| 20260505025022 | 18 | 0 | 0.0 | 1.6 | 0.00 | 0.00 | 0.00 | 61 | 1017.2 |
| 20260505024538 | 18 | 0 | 0.0 | 1.6 | 0.00 | 0.00 | 0.00 | 61 | 1017.3 |
| 20260505024022 | 18 | 0 | 0.0 | 0.0 | 0.00 | 0.00 | 0.00 | 61 | 1017.2 |
| 20260505023522 | 18 | 0 | 0.0 | 3.2 | 0.00 | 0.00 | 0.00 | 60 | 1017.3 |
| 20260505023038 | 18 | 0 | 0.0 | 3.2 | 0.00 | 0.00 | 0.00 | 60 | 1017.1 |
| 20260505022517 | 18 | 0 | 0.0 | 3.2 | 0.00 | 0.00 | 0.00 | 60 | 1017.1 |
| 20260505022019 | 18 | 0 | 0.0 | 3.2 | 0.00 | 0.00 | 0.00 | 60 | 1017.0 |
| 20260505021534 | 18 | 0 | 0.0 | 3.2 | 0.00 | 0.00 | 0.00 | 60 | 1016.9 |
| 20260505021018 | 18 | 0 | 0.0 | 3.2 | 0.00 | 0.00 | 0.00 | 60 | 1016.8 |
| 20260505020517 | 18 | 0 | 0.0 | 0.0 | 0.00 | 0.00 | 0.00 | 59 | 1016.8 |
| 20260505020037 | 19 | 0 | 0.0 | 0.0 | 0.00 | 0.00 | 0.00 | 58 | 1016.7 |
| 20260505015517 | 19 | 0 | 0.0 | 0.0 | 0.00 | 0.00 | 0.00 | 57 | 1016.7 |
| 20260505015017 | 19 | 0 | 0.0 | 0.0 | 0.00 | 0.00 | 0.00 | 57 | 1016.7 |
| 20260505014553 | 19 | 0 | 0.0 | 1.6 | 0.00 | 0.00 | 0.00 | 57 | 1016.6 |
| 20260505014016 | 19 | 0 | 0.0 | 1.6 | 0.00 | 0.00 | 0.00 | 57 | 1016.5 |
| 20260505013519 | 19 | 0 | 0.0 | 3.2 | 0.00 | 0.00 | 0.00 | 55 | 1016.5 |
| 20260505013037 | 19 | 0 | 0.0 | 3.2 | 0.00 | 0.00 | 0.00 | 54 | 1016.3 |
| 20260505012519 | 19 | 0 | 0.0 | 3.2 | 0.00 | 0.00 | 0.00 | 53 | 1016.3 |
| 20260505012017 | 19 | 0 | 0.0 | 3.2 | 0.00 | 0.00 | 0.00 | 53 | 1016.3 |
| 20260505011535 | 20 | 0 | 0.0 | 3.2 | 0.00 | 0.00 | 0.00 | 52 | 1016.1 |
| 20260505011017 | 20 | 0 | 0.0 | 3.2 | 0.00 | 0.00 | 0.00 | 50 | 1016.1 |
| 20260505010518 | 20 | 0 | 0.0 | 1.6 | 0.00 | 0.00 | 0.00 | 49 | 1016.1 |
| 20260505010036 | 20 | 0 | 0.0 | 0.0 | 0.00 | 0.00 | 0.00 | 48 | 1015.9 |
| 20260505005520 | 20 | 0 | 0.0 | 0.0 | 0.00 | 0.03 | 0.00 | 47 | 1015.9 |
| 20260505005021 | 21 | 0 | 0.0 | 0.0 | 0.00 | 0.03 | 0.00 | 47 | 1015.8 |
| 20260505004537 | 21 | 0 | 0.0 | 0.0 | 0.00 | 0.03 | 0.00 | 45 | 1015.7 |
| 20260505004021 | 21 | 0 | 0.0 | 0.0 | 0.00 | 0.03 | 0.00 | 45 | 1015.6 |
| 20260505003517 | 21 | 0 | 0.0 | 0.0 | 0.00 | 0.03 | 0.00 | 43 | 1015.5 |
| 20260505003038 | 22 | 0 | 0.0 | 0.0 | 0.00 | 0.03 | 0.00 | 42 | 1015.4 |
| 20260505002517 | 22 | 0 | 0.0 | 0.0 | 0.00 | 0.03 | 0.00 | 42 | 1015.3 |
| 20260505002017 | 22 | 0 | 0.0 | 0.0 | 0.00 | 0.03 | 0.00 | 41 | 1015.4 |
| 20260505001538 | 22 | 0 | 0.0 | 0.0 | 0.00 | 0.03 | 0.00 | 41 | 1015.3 |
| 20260505001020 | 23 | 0 | 0.0 | 0.0 | 0.00 | 0.03 | 0.00 | 40 | 1015.2 |
| 20260505000521 | 23 | 0 | 0.0 | 0.0 | 0.00 | 0.03 | 0.00 | 39 | 1015.2 |
| 20260505000048 | 23 | 0 | 0.0 | 1.6 | 0.00 | 0.03 | 0.00 | 39 | 1015.2 |
| 20260504235520 | 23 | 0 | 0.0 | 3.2 | 0.00 | 0.03 | 0.00 | 38 | 1015.1 |
| 20260504235022 | 23 | 0 | 0.0 | 3.2 | 0.00 | 0.03 | 0.00 | 38 | 1015.0 |
| 20260504234545 | 24 | 0 | 0.0 | 3.2 | 0.00 | 0.03 | 0.00 | 38 | 1015.0 |
| 20260504234022 | 24 | 0 | 0.0 | 4.8 | 0.00 | 0.03 | 0.00 | 37 | 1015.0 |
| 20260504233516 | 25 | 0 | 0.0 | 4.8 | 0.00 | 0.03 | 0.00 | 37 | 1015.0 |
| 20260504233043 | 25 | 0 | 0.0 | 0.0 | 0.00 | 0.03 | 0.00 | 36 | 1014.9 |
| 20260504232518 | 25 | 0 | 0.0 | 1.6 | 0.00 | 0.03 | 0.00 | 36 | 1014.9 |
| 20260504232019 | 25 | 0 | 0.0 | 1.6 | 0.00 | 0.03 | 0.00 | 35 | 1014.9 |
| 20260504231537 | 25 | 0 | 0.0 | 1.6 | 0.00 | 0.03 | 0.00 | 35 | 1014.9 |
| 20260504231021 | 25 | 0 | 0.0 | 1.6 | 0.00 | 0.03 | 0.00 | 34 | 1015.0 |
| 20260504230521 | 25 | 0 | 0.0 | 3.2 | 0.00 | 0.03 | 0.00 | 34 | 1015.0 |
| 20260504230039 | 26 | 0 | 0.0 | 3.2 | 0.00 | 0.03 | 0.00 | 34 | 1015.0 |
| 20260504225521 | 26 | 0 | 0.0 | 3.2 | 0.00 | 0.03 | 0.00 | 34 | 1015.0 |
| 20260504225021 | 26 | 0 | 0.0 | 1.6 | 0.00 | 0.03 | 0.00 | 34 | 1014.9 |
| 20260504224539 | 26 | 0 | 0.0 | 4.8 | 0.00 | 0.03 | 0.00 | 32 | 1014.9 |
| 20260504224021 | 26 | 200 | 0.0 | 4.8 | 0.00 | 0.03 | 0.00 | 32 | 1014.9 |
| 20260504223521 | 27 | 0 | 0.0 | 4.8 | 0.00 | 0.03 | 0.00 | 32 | 1014.9 |
| 20260504223053 | 27 | 0 | 0.0 | 4.8 | 0.00 | 0.03 | 0.00 | 32 | 1015.0 |
| 20260504222520 | 27 | 0 | 0.0 | 4.8 | 0.00 | 0.03 | 0.00 | 31 | 1014.9 |
| 20260504222020 | 27 | 0 | 0.0 | 4.8 | 0.00 | 0.03 | 0.00 | 30 | 1015.0 |
| 20260504221537 | 27 | 0 | 0.0 | 4.8 | 0.00 | 0.03 | 0.00 | 30 | 1015.0 |
| 20260504221019 | 27 | 125 | 0.0 | 4.8 | 0.00 | 0.03 | 0.00 | 30 | 1014.9 |
| 20260504220520 | 28 | 113 | 0.0 | 6.4 | 0.00 | 0.03 | 0.00 | 30 | 1014.9 |
| 20260504220036 | 28 | 121 | 1.6 | 6.4 | 0.00 | 0.03 | 0.00 | 29 | 1014.9 |
| 20260504215520 | 28 | 0 | 0.0 | 4.8 | 0.00 | 0.03 | 0.00 | 29 | 1014.8 |
| 20260504215021 | 28 | 0 | 0.0 | 3.2 | 0.00 | 0.03 | 0.00 | 29 | 1014.7 |
| 20260504214538 | 29 | 0 | 0.0 | 3.2 | 0.00 | 0.03 | 0.00 | 28 | 1014.7 |
| 20260504214021 | 29 | 217 | 0.0 | 3.2 | 0.00 | 0.03 | 0.00 | 29 | 1014.7 |
| 20260504213525 | 29 | 0 | 0.0 | 3.2 | 0.00 | 0.03 | 0.00 | 28 | 1014.6 |
| 20260504213049 | 28 | 0 | 0.0 | 3.2 | 0.00 | 0.03 | 0.00 | 32 | 1014.7 |
| 20260504212520 | 28 | 0 | 0.0 | 6.4 | 0.00 | 0.03 | 0.00 | 30 | 1014.7 |
| 20260504212023 | 28 | 0 | 0.0 | 6.4 | 0.00 | 0.03 | 0.00 | 30 | 1014.7 |
| 20260504211536 | 28 | 0 | 0.0 | 3.2 | 0.00 | 0.03 | 0.00 | 29 | 1014.7 |
| 20260504211020 | 28 | 0 | 0.0 | 4.8 | 0.00 | 0.03 | 0.00 | 28 | 1014.7 |
| 20260504210519 | 28 | 0 | 0.0 | 4.8 | 0.00 | 0.03 | 0.00 | 28 | 1014.7 |
| 20260504210039 | 28 | 0 | 0.0 | 14.5 | 0.00 | 0.03 | 0.00 | 29 | 1014.7 |
| 20260504205519 | 28 | 0 | 1.6 | 14.5 | 0.00 | 0.03 | 0.00 | 28 | 1014.9 |
| 20260504205019 | 28 | 0 | 0.0 | 8.0 | 0.00 | 0.03 | 0.00 | 30 | 1014.7 |
| 20260504204543 | 28 | 104 | 0.0 | 9.7 | 0.00 | 0.03 | 0.00 | 30 | 1014.7 |
| 20260504204023 | 28 | 0 | 1.6 | 9.7 | 0.00 | 0.03 | 0.00 | 28 | 1014.8 |
| 20260504203522 | 28 | 107 | 1.6 | 9.7 | 0.00 | 0.03 | 0.00 | 28 | 1014.9 |
| 20260504203046 | 28 | 0 | 0.0 | 6.4 | 0.00 | 0.03 | 0.00 | 27 | 1014.9 |
| 20260504202519 | 28 | 0 | 0.0 | 6.4 | 0.00 | 0.03 | 0.00 | 27 | 1014.9 |
| 20260504202021 | 28 | 180 | 0.0 | 6.4 | 0.00 | 0.03 | 0.00 | 27 | 1014.9 |
| 20260504201538 | 28 | 0 | 0.0 | 6.4 | 0.00 | 0.03 | 0.00 | 27 | 1015.1 |
| 20260504201023 | 28 | 77 | 1.6 | 9.7 | 0.00 | 0.03 | 0.00 | 26 | 1015.0 |
| 20260504200520 | 28 | 175 | 0.0 | 9.7 | 0.00 | 0.03 | 0.00 | 28 | 1015.1 |
| 20260504200036 | 28 | 98 | 3.2 | 9.7 | 0.00 | 0.03 | 0.00 | 27 | 1015.2 |
| 20260504195518 | 29 | 126 | 1.6 | 4.8 | 0.00 | 0.05 | 0.00 | 27 | 1015.3 |
| 20260504195021 | 29 | 88 | 0.0 | 4.8 | 0.00 | 0.05 | 0.00 | 28 | 1015.3 |
| 20260504194536 | 29 | 276 | 0.0 | 4.8 | 0.00 | 0.05 | 0.00 | 27 | 1015.4 |
| 20260504194021 | 29 | 0 | 0.0 | 6.4 | 0.00 | 0.05 | 0.00 | 30 | 1015.5 |
| 20260504193520 | 29 | 0 | 0.0 | 6.4 | 0.00 | 0.05 | 0.00 | 29 | 1015.6 |
| 20260504193035 | 29 | 116 | 0.0 | 9.7 | 0.00 | 0.05 | 0.00 | 29 | 1015.7 |
| 20260504192519 | 29 | 52 | 1.6 | 9.7 | 0.00 | 0.05 | 0.00 | 27 | 1015.8 |
| 20260504192019 | 29 | 0 | 0.0 | 6.4 | 0.00 | 0.05 | 0.00 | 29 | 1015.9 |
| 20260504191539 | 29 | 269 | 0.0 | 9.7 | 0.00 | 0.05 | 0.00 | 28 | 1015.8 |
| 20260504191019 | 29 | 250 | 0.0 | 9.7 | 0.00 | 0.05 | 0.00 | 31 | 1015.9 |
| 20260504190519 | 28 | 0 | 0.0 | 6.4 | 0.00 | 0.05 | 0.00 | 31 | 1016.0 |
| 20260504190044 | 28 | 87 | 0.0 | 6.4 | 0.00 | 0.05 | 0.00 | 28 | 1016.1 |
| 20260504185521 | 28 | 0 | 0.0 | 6.4 | 0.00 | 0.05 | 0.00 | 29 | 1016.1 |
| 20260504185019 | 28 | 0 | 0.0 | 11.3 | 0.00 | 0.05 | 0.00 | 30 | 1016.4 |
| 20260504184537 | 28 | 0 | 0.0 | 11.3 | 0.00 | 0.05 | 0.00 | 29 | 1016.5 |
| 20260504184020 | 27 | 0 | 1.6 | 11.3 | 0.00 | 0.05 | 0.00 | 30 | 1016.6 |
| 20260504183519 | 27 | 0 | 0.0 | 6.4 | 0.00 | 0.05 | 0.00 | 31 | 1016.7 |
| 20260504183035 | 27 | 138 | 0.0 | 6.4 | 0.00 | 0.05 | 0.00 | 30 | 1016.7 |
| 20260504182519 | 27 | 110 | 1.6 | 12.9 | 0.00 | 0.05 | 0.00 | 31 | 1016.7 |
| 20260504182020 | 27 | 245 | 0.0 | 12.9 | 0.00 | 0.05 | 0.00 | 33 | 1016.7 |
| 20260504181542 | 27 | 0 | 1.6 | 9.7 | 0.00 | 0.05 | 0.00 | 31 | 1016.8 |
| 20260504181022 | 27 | 0 | 3.2 | 9.7 | 0.00 | 0.05 | 0.00 | 30 | 1016.8 |
| 20260504180522 | 27 | 0 | 0.0 | 11.3 | 0.00 | 0.05 | 0.00 | 34 | 1016.8 |
| 20260504180034 | 26 | 0 | 0.0 | 11.3 | 0.00 | 0.05 | 0.00 | 33 | 1016.8 |
| 20260504175522 | 27 | 101 | 0.0 | 4.8 | 0.00 | 0.05 | 0.00 | 33 | 1017.0 |
| 20260504175021 | 27 | 0 | 0.0 | 6.4 | 0.00 | 0.05 | 0.00 | 32 | 1017.0 |
| 20260504174538 | 26 | 276 | 0.0 | 6.4 | 0.00 | 0.05 | 0.00 | 33 | 1017.0 |
| 20260504174022 | 26 | 282 | 3.2 | 6.4 | 0.00 | 0.05 | 0.00 | 33 | 1017.0 |
| 20260504173519 | 26 | 0 | 1.6 | 6.4 | 0.00 | 0.05 | 0.00 | 32 | 1017.0 |
| 20260504173036 | 26 | 302 | 0.0 | 12.9 | 0.00 | 0.05 | 0.00 | 32 | 1017.1 |
| 20260504172519 | 26 | 298 | 1.6 | 12.9 | 0.00 | 0.05 | 0.00 | 31 | 1017.1 |
| 20260504172020 | 26 | 275 | 1.6 | 12.9 | 0.00 | 0.05 | 0.00 | 31 | 1017.1 |
| 20260504171537 | 26 | 281 | 3.2 | 12.9 | 0.00 | 0.05 | 0.00 | 32 | 1017.2 |
| 20260504171027 | 26 | 91 | 0.0 | 6.4 | 0.00 | 0.05 | 0.00 | 36 | 1017.2 |
| 20260504170522 | 26 | 0 | 0.0 | 9.7 | 0.00 | 0.05 | 0.00 | 33 | 1017.3 |
| 20260504151020 | 23 | 294 | 1.6 | 8.0 | 0.00 | 0.05 | 0.00 | 41 | 1018.4 |
| 20260504150520 | 23 | 336 | 0.0 | 9.7 | 0.00 | 0.05 | 0.00 | 44 | 1018.4 |
| 20260504141022 | 21 | 0 | 0.0 | 6.4 | 0.00 | 0.05 | 0.00 | 52 | 1018.5 |
| 20260504140518 | 21 | 0 | 1.6 | 6.4 | 0.00 | 0.05 | 0.00 | 53 | 1018.5 |
| 20260504130519 | 13 | 0 | 0.0 | 1.6 | 0.00 | 0.08 | 0.00 | 94 | 1018.7 |
| 20260504110521 | 8 | 0 | 0.0 | 0.0 | 0.00 | 0.08 | 0.00 | 90 | 1018.5 |
| 20260504100518 | 8 | 0 | 0.0 | 0.0 | 0.00 | 0.08 | 0.00 | 90 | 1018.2 |
| 20260504081538 | 9 | 0 | 0.0 | 3.2 | 0.00 | 0.08 | 0.00 | 89 | 1018.0 |
| 20260504081019 | 9 | 0 | 0.0 | 3.2 | 0.00 | 0.08 | 0.00 | 89 | 1018.1 |
| 20260504080519 | 9 | 0 | 0.0 | 0.0 | 0.00 | 0.08 | 0.00 | 88 | 1017.9 |
| 20260504050519 | 10 | 0 | 0.0 | 0.0 | 0.00 | 0.10 | 0.00 | 83 | 1018.7 |
| 20260504045519 | 10 | 0 | 0.0 | 0.0 | 0.00 | 0.10 | 0.00 | 82 | 1018.7 |
| 20260504045019 | 10 | 0 | 0.0 | 0.0 | 0.00 | 0.10 | 0.00 | 82 | 1018.7 |
| 20260504044543 | 10 | 0 | 0.0 | 0.0 | 0.00 | 0.10 | 0.00 | 81 | 1018.6 |
| 20260504044019 | 10 | 0 | 0.0 | 0.0 | 0.00 | 0.10 | 0.00 | 80 | 1018.5 |
| 20260504043523 | 10 | 0 | 0.0 | 0.0 | 0.00 | 0.10 | 0.00 | 79 | 1018.5 |
| 20260504043036 | 10 | 0 | 0.0 | 0.0 | 0.00 | 0.10 | 0.00 | 79 | 1018.3 |
| 20260504042523 | 11 | 0 | 0.0 | 0.0 | 0.00 | 0.10 | 0.00 | 79 | 1018.4 |
| 20260504042019 | 11 | 0 | 0.0 | 0.0 | 0.00 | 0.10 | 0.00 | 79 | 1018.4 |